| time (UTC) | temp F | wind direction | speed knots | gust knots | rain 1hr in | rain 24hr in | rain mn in | humidity % | barometer mb |
| 20260506231227 | 42 | 41 | 1.7 | 4.3 | 0.00 | 0.00 | 0.00 | 89 | 1011.7 |
| 20260506230725 | 42 | 334 | 1.7 | 4.3 | 0.00 | 0.00 | 0.00 | 89 | 1011.8 |
| 20260506230225 | 42 | 344 | 1.7 | 4.3 | 0.00 | 0.00 | 0.00 | 89 | 1011.6 |
| 20260506225221 | 42 | 1 | 1.7 | 2.6 | 0.00 | 0.00 | 0.00 | 89 | 1011.7 |
| 20260506224222 | 42 | 353 | 1.7 | 2.6 | 0.00 | 0.00 | 0.00 | 88 | 1011.8 |
| 20260506223720 | 43 | 1 | 1.7 | 3.5 | 0.00 | 0.00 | 0.00 | 88 | 1011.7 |
| 20260506223219 | 43 | 324 | 1.7 | 3.5 | 0.00 | 0.00 | 0.00 | 88 | 1011.7 |
| 20260506222705 | 43 | 28 | 1.7 | 3.5 | 0.00 | 0.00 | 0.00 | 88 | 1011.7 |
| 20260506222205 | 43 | 25 | 0.9 | 3.5 | 0.00 | 0.00 | 0.00 | 87 | 1011.7 |
| 20260506221702 | 44 | 344 | 1.7 | 3.5 | 0.00 | 0.00 | 0.00 | 87 | 1011.6 |
| 20260506221200 | 44 | 28 | 1.7 | 4.3 | 0.00 | 0.00 | 0.00 | 87 | 1011.6 |
| 20260506220700 | 44 | 1 | 1.7 | 4.3 | 0.00 | 0.00 | 0.00 | 87 | 1011.7 |
| 20260506220201 | 44 | 303 | 1.7 | 4.3 | 0.00 | 0.00 | 0.00 | 87 | 1011.6 |
| 20260506215659 | 44 | 40 | 1.7 | 4.3 | 0.00 | 0.00 | 0.00 | 86 | 1011.6 |
| 20260506215201 | 44 | 46 | 1.7 | 4.3 | 0.00 | 0.00 | 0.00 | 86 | 1011.6 |
| 20260506213656 | 45 | 20 | 2.6 | 4.3 | 0.00 | 0.00 | 0.00 | 86 | 1011.5 |
| 20260506213154 | 45 | 1 | 2.6 | 5.2 | 0.00 | 0.00 | 0.00 | 85 | 1011.5 |
| 20260506212653 | 45 | 1 | 1.7 | 7.0 | 0.00 | 0.00 | 0.00 | 85 | 1011.5 |
| 20260506212153 | 45 | 1 | 1.7 | 7.0 | 0.00 | 0.00 | 0.00 | 85 | 1011.5 |
| 20260506211151 | 45 | 353 | 2.6 | 5.2 | 0.00 | 0.00 | 0.00 | 84 | 1011.5 |
| 20260506210650 | 45 | 35 | 2.6 | 5.2 | 0.00 | 0.00 | 0.00 | 84 | 1011.4 |
| 20260506210150 | 46 | 353 | 2.6 | 5.2 | 0.00 | 0.00 | 0.00 | 84 | 1011.4 |
| 20260506205649 | 46 | 178 | 2.6 | 4.3 | 0.00 | 0.00 | 0.00 | 83 | 1011.4 |
| 20260506205149 | 46 | 338 | 2.6 | 6.1 | 0.00 | 0.00 | 0.00 | 83 | 1011.4 |
| 20260506204647 | 46 | 344 | 2.6 | 6.1 | 0.00 | 0.00 | 0.00 | 83 | 1011.4 |
| 20260506203647 | 46 | 13 | 2.6 | 4.3 | 0.00 | 0.00 | 0.00 | 83 | 1011.4 |
| 20260506203145 | 47 | 340 | 2.6 | 4.3 | 0.00 | 0.00 | 0.00 | 82 | 1011.3 |
| 20260506202145 | 47 | 25 | 2.6 | 5.2 | 0.00 | 0.00 | 0.00 | 81 | 1011.3 |
| 20260506201644 | 47 | 334 | 2.6 | 7.0 | 0.00 | 0.00 | 0.00 | 81 | 1011.2 |
| 20260506201143 | 47 | 335 | 2.6 | 7.0 | 0.00 | 0.00 | 0.00 | 80 | 1011.3 |
| 20260506200643 | 47 | 11 | 3.5 | 7.0 | 0.00 | 0.00 | 0.00 | 80 | 1011.1 |
| 20260506200141 | 48 | 46 | 3.5 | 7.8 | 0.00 | 0.00 | 0.00 | 79 | 1011.1 |
| 20260506195640 | 48 | 1 | 3.5 | 7.8 | 0.00 | 0.00 | 0.00 | 79 | 1011.0 |
| 20260506195141 | 48 | 346 | 2.6 | 7.8 | 0.00 | 0.00 | 0.00 | 79 | 1011.1 |
| 20260506194639 | 48 | 337 | 2.6 | 7.8 | 0.00 | 0.00 | 0.00 | 78 | 1010.9 |
| 20260506194139 | 48 | 20 | 3.5 | 7.8 | 0.00 | 0.00 | 0.00 | 78 | 1011.0 |
| 20260506193638 | 49 | 334 | 3.5 | 7.0 | 0.00 | 0.00 | 0.00 | 77 | 1010.8 |
| 20260506193137 | 49 | 23 | 3.5 | 7.0 | 0.00 | 0.00 | 0.00 | 76 | 1010.9 |
| 20260506192637 | 49 | 345 | 3.5 | 7.8 | 0.00 | 0.00 | 0.00 | 76 | 1010.9 |
| 20260506192136 | 49 | 15 | 3.5 | 8.7 | 0.00 | 0.00 | 0.00 | 76 | 1010.7 |
| 20260506191634 | 49 | 354 | 3.5 | 8.7 | 0.00 | 0.00 | 0.00 | 76 | 1010.8 |
| 20260506191135 | 50 | 39 | 3.5 | 8.7 | 0.00 | 0.00 | 0.00 | 76 | 1010.8 |
| 20260506190144 | 50 | 23 | 4.3 | 8.7 | 0.00 | 0.00 | 0.00 | 75 | 1010.6 |
| 20260506185636 | 50 | 347 | 4.3 | 8.7 | 0.00 | 0.00 | 0.00 | 75 | 1010.5 |
| 20260506185134 | 50 | 350 | 4.3 | 8.7 | 0.00 | 0.00 | 0.00 | 75 | 1010.5 |
| 20260506184133 | 51 | 63 | 4.3 | 9.6 | 0.00 | 0.00 | 0.00 | 75 | 1010.4 |
| 20260506183633 | 51 | 325 | 3.5 | 9.6 | 0.00 | 0.00 | 0.00 | 75 | 1010.3 |
| 20260506183128 | 51 | 329 | 3.5 | 9.6 | 0.00 | 0.00 | 0.00 | 75 | 1010.3 |
| 20260506182629 | 51 | 314 | 3.5 | 7.8 | 0.00 | 0.00 | 0.00 | 74 | 1010.2 |
| 20260506182129 | 52 | 353 | 3.5 | 7.8 | 0.00 | 0.00 | 0.00 | 74 | 1010.1 |
| 20260506181622 | 52 | 28 | 3.5 | 7.8 | 0.00 | 0.00 | 0.00 | 73 | 1010.0 |
| 20260506181124 | 52 | 23 | 2.6 | 6.1 | 0.00 | 0.00 | 0.00 | 73 | 1010.0 |
| 20260506180119 | 53 | 25 | 2.6 | 8.7 | 0.00 | 0.00 | 0.00 | 72 | 1009.8 |
| 20260506173110 | 54 | 354 | 2.6 | 10.4 | 0.00 | 0.00 | 0.00 | 71 | 1009.6 |
| 20260506172108 | 54 | 314 | 1.7 | 5.2 | 0.00 | 0.00 | 0.00 | 73 | 1009.5 |
| 20260506171608 | 53 | 117 | 1.7 | 5.2 | 0.00 | 0.00 | 0.00 | 73 | 1009.4 |
| 20260506171107 | 53 | 135 | 0.9 | 4.3 | 0.00 | 0.00 | 0.00 | 73 | 1009.6 |
| 20260506170620 | 53 | 145 | 0.9 | 4.3 | 0.00 | 0.00 | 0.00 | 72 | 1009.5 |
| 20260506165600 | 53 | 108 | 1.7 | 4.3 | 0.00 | 0.00 | 0.00 | 72 | 1009.5 |
| 20260506164600 | 53 | 112 | 2.6 | 6.1 | 0.00 | 0.00 | 0.00 | 72 | 1009.4 |
| 20260506164058 | 53 | 126 | 0.9 | 5.2 | 0.00 | 0.00 | 0.00 | 72 | 1009.4 |
| 20260506163556 | 53 | 46 | 0.9 | 3.5 | 0.00 | 0.00 | 0.00 | 71 | 1009.4 |
| 20260506163056 | 53 | 46 | 0.9 | 3.5 | 0.00 | 0.00 | 0.00 | 70 | 1009.4 |
| 20260506161552 | 53 | 150 | 1.7 | 4.3 | 0.00 | 0.00 | 0.00 | 71 | 1009.4 |
| 20260506160548 | 53 | 152 | 2.6 | 5.2 | 0.00 | 0.00 | 0.00 | 70 | 1009.4 |
| 20260506160059 | 54 | 132 | 1.7 | 4.3 | 0.00 | 0.00 | 0.00 | 69 | 1009.4 |
| 20260506155547 | 54 | 197 | 1.7 | 3.5 | 0.00 | 0.00 | 0.00 | 70 | 1009.4 |
| 20260506154549 | 54 | 110 | 1.7 | 4.3 | 0.00 | 0.00 | 0.00 | 70 | 1009.4 |
| 20260506154048 | 54 | 127 | 2.6 | 6.1 | 0.00 | 0.00 | 0.00 | 72 | 1009.4 |
| 20260506153548 | 54 | 163 | 2.6 | 6.1 | 0.00 | 0.00 | 0.00 | 71 | 1009.4 |
| 20260506153046 | 53 | 131 | 1.7 | 4.3 | 0.00 | 0.00 | 0.00 | 71 | 1009.3 |
| 20260506152547 | 53 | 142 | 1.7 | 5.2 | 0.00 | 0.00 | 0.00 | 70 | 1009.3 |
| 20260506152048 | 53 | 122 | 1.7 | 5.2 | 0.00 | 0.00 | 0.00 | 70 | 1009.3 |
| 20260506151546 | 53 | 135 | 1.7 | 4.3 | 0.00 | 0.00 | 0.00 | 70 | 1009.2 |
| 20260506151046 | 53 | 120 | 2.6 | 5.2 | 0.00 | 0.00 | 0.00 | 71 | 1009.3 |
| 20260506145044 | 53 | 63 | 2.6 | 5.2 | 0.00 | 0.00 | 0.00 | 70 | 1009.1 |
| 20260506144042 | 54 | 142 | 0.9 | 5.2 | 0.00 | 0.00 | 0.00 | 70 | 1009.1 |
| 20260506143542 | 54 | 128 | 0.9 | 4.3 | 0.00 | 0.00 | 0.00 | 70 | 1009.1 |
| 20260506142541 | 53 | 223 | 1.7 | 7.0 | 0.00 | 0.00 | 0.00 | 69 | 1009.1 |
| 20260506142041 | 53 | 155 | 0.9 | 7.0 | 0.00 | 0.00 | 0.00 | 69 | 1009.2 |
| 20260506141540 | 53 | 89 | 1.7 | 4.3 | 0.00 | 0.00 | 0.00 | 68 | 1009.2 |
| 20260506140534 | 54 | 13 | 0.9 | 5.2 | 0.00 | 0.00 | 0.00 | 68 | 1009.1 |
| 20260506140034 | 53 | 89 | 1.7 | 3.5 | 0.00 | 0.00 | 0.00 | 70 | 1009.1 |
| 20260506135534 | 53 | 124 | 1.7 | 4.3 | 0.00 | 0.00 | 0.00 | 70 | 1009.1 |
| 20260506135032 | 53 | 135 | 1.7 | 5.2 | 0.00 | 0.00 | 0.00 | 70 | 1009.1 |
| 20260506134533 | 53 | 115 | 1.7 | 6.1 | 0.00 | 0.00 | 0.00 | 70 | 1009.1 |
| 20260506134030 | 52 | 295 | 2.6 | 7.8 | 0.00 | 0.00 | 0.00 | 70 | 1009.1 |
| 20260506133532 | 52 | 168 | 2.6 | 7.8 | 0.00 | 0.00 | 0.00 | 70 | 1009.1 |
| 20260506133030 | 52 | 129 | 3.5 | 7.8 | 0.00 | 0.00 | 0.00 | 70 | 1009.2 |
| 20260506132025 | 52 | 46 | 1.7 | 6.1 | 0.00 | 0.00 | 0.00 | 70 | 1009.2 |
| 20260506131524 | 52 | 124 | 2.6 | 6.1 | 0.00 | 0.00 | 0.00 | 69 | 1009.2 |
| 20260506131021 | 52 | 105 | 2.6 | 7.0 | 0.00 | 0.00 | 0.00 | 70 | 1009.1 |
| 20260506130520 | 52 | 89 | 2.6 | 7.0 | 0.00 | 0.00 | 0.00 | 67 | 1009.2 |
| 20260506130020 | 52 | 89 | 2.6 | 7.8 | 0.00 | 0.00 | 0.00 | 67 | 1009.2 |
| 20260506125517 | 53 | 98 | 2.6 | 7.8 | 0.00 | 0.00 | 0.00 | 67 | 1009.2 |
| 20260506125016 | 53 | 135 | 2.6 | 6.1 | 0.00 | 0.00 | 0.00 | 65 | 1009.1 |
| 20260506124517 | 53 | 128 | 2.6 | 7.8 | 0.00 | 0.00 | 0.00 | 65 | 1009.2 |
| 20260506124010 | 53 | 131 | 2.6 | 7.8 | 0.00 | 0.00 | 0.00 | 63 | 1009.1 |
| 20260506123510 | 53 | 103 | 2.6 | 6.1 | 0.00 | 0.00 | 0.00 | 64 | 1009.1 |
| 20260506123010 | 53 | 117 | 1.7 | 5.2 | 0.00 | 0.00 | 0.00 | 63 | 1009.0 |
| 20260506122506 | 53 | 152 | 2.6 | 6.1 | 0.00 | 0.00 | 0.00 | 64 | 1009.1 |
| 20260506122008 | 53 | 59 | 2.6 | 6.1 | 0.00 | 0.00 | 0.00 | 64 | 1009.1 |
| 20260506121507 | 53 | 40 | 2.6 | 6.1 | 0.00 | 0.00 | 0.00 | 64 | 1009.1 |
| 20260506121004 | 54 | 60 | 2.6 | 6.1 | 0.00 | 0.00 | 0.00 | 64 | 1009.0 |
| 20260506120504 | 54 | 122 | 2.6 | 6.1 | 0.00 | 0.00 | 0.00 | 63 | 1009.0 |
| 20260506115505 | 54 | 89 | 2.6 | 7.8 | 0.00 | 0.00 | 0.00 | 62 | 1008.9 |
| 20260506115004 | 54 | 117 | 2.6 | 7.0 | 0.00 | 0.00 | 0.00 | 63 | 1008.8 |
| 20260506114505 | 54 | 126 | 2.6 | 7.0 | 0.00 | 0.00 | 0.00 | 63 | 1008.8 |
| 20260506114004 | 54 | 51 | 2.6 | 5.2 | 0.00 | 0.00 | 0.00 | 64 | 1008.8 |
| 20260506113006 | 54 | 98 | 2.6 | 8.7 | 0.00 | 0.00 | 0.00 | 61 | 1008.7 |
| 20260506112504 | 54 | 171 | 2.6 | 8.7 | 0.00 | 0.00 | 0.00 | 61 | 1008.8 |
| 20260506112001 | 54 | 28 | 2.6 | 7.0 | 0.00 | 0.00 | 0.00 | 60 | 1008.8 |
| 20260506111500 | 53 | 135 | 2.6 | 6.1 | 0.00 | 0.00 | 0.00 | 61 | 1008.8 |
| 20260506111000 | 53 | 114 | 1.7 | 5.2 | 0.00 | 0.00 | 0.00 | 62 | 1008.7 |
| 20260506110458 | 53 | 135 | 1.7 | 6.1 | 0.00 | 0.00 | 0.00 | 65 | 1008.7 |
| 20260506105958 | 53 | 35 | 1.7 | 6.1 | 0.00 | 0.00 | 0.00 | 64 | 1008.7 |
| 20260506105459 | 53 | 117 | 2.6 | 6.1 | 0.00 | 0.00 | 0.00 | 63 | 1008.8 |
| 20260506104957 | 53 | 117 | 2.6 | 6.1 | 0.00 | 0.00 | 0.00 | 65 | 1008.8 |
| 20260506104456 | 53 | 35 | 2.6 | 8.7 | 0.00 | 0.00 | 0.00 | 63 | 1008.7 |
| 20260506103959 | 53 | 46 | 2.6 | 8.7 | 0.00 | 0.00 | 0.00 | 63 | 1008.7 |
| 20260506103455 | 53 | 63 | 2.6 | 6.1 | 0.00 | 0.00 | 0.00 | 63 | 1008.7 |
| 20260506102954 | 53 | 95 | 2.6 | 5.2 | 0.00 | 0.00 | 0.00 | 64 | 1008.6 |
| 20260506101953 | 53 | 8 | 2.6 | 7.0 | 0.00 | 0.00 | 0.00 | 63 | 1008.5 |
| 20260506101453 | 53 | 68 | 3.5 | 7.0 | 0.00 | 0.00 | 0.00 | 63 | 1008.5 |
| 20260506100952 | 53 | 44 | 3.5 | 7.0 | 0.00 | 0.00 | 0.00 | 63 | 1008.5 |
| 20260506100446 | 52 | 60 | 2.6 | 6.1 | 0.00 | 0.00 | 0.00 | 63 | 1008.5 |
| 20260506095946 | 52 | 74 | 2.6 | 7.0 | 0.00 | 0.00 | 0.00 | 64 | 1008.5 |
| 20260506095446 | 52 | 117 | 2.6 | 7.0 | 0.00 | 0.00 | 0.00 | 65 | 1008.5 |
| 20260506094941 | 52 | 46 | 3.5 | 7.8 | 0.00 | 0.00 | 0.00 | 64 | 1008.5 |
| 20260506094439 | 52 | 76 | 2.6 | 7.8 | 0.00 | 0.00 | 0.00 | 63 | 1008.4 |
| 20260506093941 | 52 | 96 | 1.7 | 5.2 | 0.00 | 0.00 | 0.00 | 66 | 1008.4 |
| 20260506093434 | 52 | 1 | 1.7 | 4.3 | 0.00 | 0.00 | 0.00 | 67 | 1008.4 |
| 20260506092934 | 52 | 102 | 1.7 | 4.3 | 0.00 | 0.00 | 0.00 | 66 | 1008.3 |
| 20260506092432 | 52 | 81 | 1.7 | 4.3 | 0.00 | 0.00 | 0.00 | 67 | 1008.3 |
| 20260506091928 | 52 | 75 | 2.6 | 4.3 | 0.00 | 0.00 | 0.00 | 67 | 1008.4 |
| 20260506091428 | 52 | 51 | 2.6 | 4.3 | 0.00 | 0.00 | 0.00 | 67 | 1008.3 |
| 20260506090928 | 51 | 89 | 2.6 | 4.3 | 0.00 | 0.00 | 0.00 | 67 | 1008.3 |
| 20260506090426 | 51 | 108 | 2.6 | 8.7 | 0.00 | 0.00 | 0.00 | 67 | 1008.3 |
| 20260506085925 | 51 | 54 | 2.6 | 8.7 | 0.00 | 0.00 | 0.00 | 67 | 1008.2 |
| 20260506084923 | 51 | 135 | 2.6 | 7.0 | 0.00 | 0.00 | 0.00 | 67 | 1008.2 |
| 20260506084424 | 51 | 102 | 2.6 | 7.0 | 0.00 | 0.00 | 0.00 | 68 | 1008.1 |
| 20260506083931 | 51 | 20 | 2.6 | 7.0 | 0.00 | 0.00 | 0.00 | 69 | 1008.1 |
| 20260506083421 | 51 | 60 | 2.6 | 7.0 | 0.00 | 0.00 | 0.00 | 70 | 1008.6 |
| 20260506082921 | 51 | 46 | 2.6 | 8.7 | 0.00 | 0.00 | 0.00 | 71 | 1008.0 |
| 20260506082421 | 51 | 46 | 2.6 | 8.7 | 0.00 | 0.00 | 0.00 | 71 | 1007.9 |
| 20260506081916 | 51 | 117 | 2.6 | 7.8 | 0.00 | 0.00 | 0.00 | 73 | 1007.9 |
| 20260506081417 | 51 | 76 | 2.6 | 7.0 | 0.00 | 0.00 | 0.00 | 75 | 1007.9 |
| 20260506080916 | 50 | 21 | 2.6 | 7.0 | 0.00 | 0.00 | 0.00 | 76 | 1007.8 |
| 20260506080425 | 50 | 210 | 2.6 | 7.0 | 0.00 | 0.00 | 0.00 | 75 | 1007.9 |
| 20260506073413 | 50 | 115 | 1.7 | 7.0 | 0.00 | 0.00 | 0.00 | 79 | 1007.8 |
| 20260506072915 | 50 | 53 | 2.6 | 7.0 | 0.00 | 0.00 | 0.00 | 79 | 1007.9 |
| 20260506072414 | 50 | 63 | 2.6 | 7.0 | 0.00 | 0.00 | 0.00 | 81 | 1007.8 |
| 20260506071907 | 50 | 351 | 2.6 | 7.0 | 0.00 | 0.00 | 0.00 | 81 | 1007.8 |
| 20260506071421 | 50 | 102 | 2.6 | 6.1 | 0.00 | 0.00 | 0.00 | 82 | 1007.7 |
| 20260506070905 | 50 | 157 | 1.7 | 6.1 | 0.00 | 0.00 | 0.00 | 82 | 1007.7 |
| 20260506070406 | 50 | 336 | 2.6 | 8.7 | 0.00 | 0.00 | 0.00 | 83 | 1007.7 |
| 20260506062359 | 49 | 20 | 1.7 | 4.3 | 0.00 | 0.00 | 0.00 | 83 | 1007.7 |
| 20260506061900 | 49 | 46 | 2.6 | 9.6 | 0.00 | 0.00 | 0.00 | 82 | 1007.7 |
| 20260506060359 | 49 | 11 | 2.6 | 6.1 | 0.00 | 0.00 | 0.00 | 81 | 1007.6 |
| 20260506051359 | 49 | 25 | 1.7 | 4.3 | 0.00 | 0.00 | 0.00 | 78 | 1007.6 |
| 20260506050859 | 49 | 46 | 1.7 | 3.5 | 0.00 | 0.00 | 0.00 | 78 | 1007.6 |
| 20260506050401 | 49 | 295 | 0.9 | 3.5 | 0.00 | 0.00 | 0.00 | 80 | 1007.5 |
| 20260506044352 | 49 | 63 | 0.9 | 3.5 | 0.00 | 0.00 | 0.00 | 82 | 1007.5 |
| 20260506043847 | 49 | 108 | 1.7 | 4.3 | 0.00 | 0.00 | 0.00 | 82 | 1007.4 |
| 20260506043348 | 49 | 89 | 1.7 | 5.2 | 0.00 | 0.00 | 0.00 | 83 | 1007.4 |
| 20260506042848 | 49 | 1 | 1.7 | 5.2 | 0.00 | 0.00 | 0.00 | 83 | 1007.4 |
| 20260506042347 | 49 | 108 | 1.7 | 4.3 | 0.00 | 0.00 | 0.00 | 83 | 1007.4 |
| 20260506041846 | 49 | 352 | 1.7 | 5.2 | 0.00 | 0.00 | 0.00 | 84 | 1007.4 |
| 20260506041342 | 49 | 9 | 1.7 | 5.2 | 0.00 | 0.00 | 0.00 | 84 | 1007.3 |
| 20260506040843 | 49 | 345 | 1.7 | 5.2 | 0.00 | 0.00 | 0.00 | 84 | 1007.4 |
| 20260506040341 | 49 | 11 | 1.7 | 5.2 | 0.00 | 0.00 | 0.00 | 84 | 1007.4 |
| 20260506035835 | 49 | 44 | 1.7 | 5.2 | 0.00 | 0.00 | 0.00 | 84 | 1007.3 |
| 20260506035335 | 49 | 344 | 2.6 | 7.0 | 0.00 | 0.00 | 0.00 | 84 | 1007.3 |
| 20260506034836 | 49 | 13 | 2.6 | 7.0 | 0.00 | 0.00 | 0.00 | 84 | 1007.3 |
| 20260506034333 | 49 | 58 | 2.6 | 7.0 | 0.00 | 0.00 | 0.00 | 84 | 1007.4 |
| 20260506033831 | 49 | 331 | 2.6 | 7.0 | 0.00 | 0.00 | 0.00 | 84 | 1007.5 |
| 20260506032330 | 49 | 1 | 3.5 | 7.0 | 0.00 | 0.00 | 0.00 | 85 | 1007.6 |
| 20260506031827 | 49 | 1 | 3.5 | 7.0 | 0.00 | 0.00 | 0.00 | 85 | 1007.6 |
| 20260506031322 | 49 | 335 | 2.6 | 7.8 | 0.00 | 0.00 | 0.00 | 85 | 1007.6 |
| 20260506030823 | 49 | 44 | 3.5 | 7.8 | 0.00 | 0.00 | 0.00 | 85 | 1007.6 |
| 20260506030324 | 49 | 15 | 2.6 | 7.0 | 0.00 | 0.00 | 0.00 | 86 | 1007.6 |
| 20260506025321 | 49 | 89 | 3.5 | 7.8 | 0.00 | 0.00 | 0.00 | 86 | 1007.8 |
| 20260506024820 | 49 | 8 | 2.6 | 7.8 | 0.00 | 0.00 | 0.00 | 86 | 1007.8 |
| 20260506024316 | 49 | 15 | 3.5 | 7.8 | 0.00 | 0.00 | 0.00 | 86 | 1007.8 |
| 20260506023815 | 49 | 314 | 3.5 | 7.8 | 0.00 | 0.00 | 0.00 | 86 | 1007.8 |
| 20260506023314 | 49 | 354 | 3.5 | 8.7 | 0.00 | 0.00 | 0.00 | 86 | 1007.8 |
| 20260506022811 | 50 | 354 | 3.5 | 8.7 | 0.00 | 0.00 | 0.00 | 86 | 1007.8 |
| 20260506021812 | 50 | 8 | 3.5 | 7.8 | 0.00 | 0.00 | 0.00 | 86 | 1007.8 |
| 20260506021306 | 50 | 32 | 3.5 | 7.8 | 0.00 | 0.00 | 0.00 | 87 | 1008.0 |
| 20260506020808 | 50 | 28 | 3.5 | 7.8 | 0.00 | 0.00 | 0.00 | 87 | 1007.9 |
| 20260506020308 | 50 | 20 | 2.6 | 7.0 | 0.00 | 0.00 | 0.00 | 87 | 1007.9 |
| 20260506015803 | 50 | 354 | 2.6 | 7.0 | 0.00 | 0.00 | 0.00 | 87 | 1008.0 |
| 20260506015305 | 50 | 89 | 3.5 | 8.7 | 0.00 | 0.00 | 0.00 | 87 | 1008.1 |
| 20260506014804 | 50 | 98 | 3.5 | 8.7 | 0.00 | 0.00 | 0.00 | 86 | 1008.1 |
| 20260506014301 | 50 | 46 | 2.6 | 9.6 | 0.00 | 0.00 | 0.00 | 86 | 1008.2 |
| 20260506013801 | 50 | 30 | 2.6 | 9.6 | 0.00 | 0.00 | 0.00 | 86 | 1008.2 |
| 20260506012256 | 50 | 46 | 2.6 | 7.0 | 0.00 | 0.00 | 0.00 | 86 | 1008.2 |
| 20260506011757 | 50 | 6 | 3.5 | 8.7 | 0.00 | 0.00 | 0.00 | 86 | 1008.2 |
| 20260506010805 | 50 | 18 | 3.5 | 7.8 | 0.00 | 0.00 | 0.00 | 85 | 1008.3 |
| 20260506010254 | 50 | 46 | 3.5 | 9.6 | 0.00 | 0.00 | 0.00 | 85 | 1008.3 |
| 20260506005751 | 49 | 39 | 3.5 | 9.6 | 0.00 | 0.00 | 0.00 | 84 | 1008.3 |
| 20260506005250 | 49 | 350 | 3.5 | 8.7 | 0.00 | 0.00 | 0.00 | 84 | 1008.3 |
| 20260506004750 | 49 | 25 | 3.5 | 9.6 | 0.00 | 0.00 | 0.00 | 84 | 1008.4 |
| 20260506004249 | 49 | 32 | 2.6 | 9.6 | 0.00 | 0.00 | 0.00 | 84 | 1008.4 |
| 20260506003750 | 49 | 59 | 2.6 | 7.8 | 0.00 | 0.00 | 0.00 | 83 | 1008.4 |
| 20260506001747 | 49 | 347 | 2.6 | 7.0 | 0.00 | 0.00 | 0.00 | 83 | 1008.6 |
| 20260506000745 | 49 | 8 | 3.5 | 7.0 | 0.00 | 0.00 | 0.00 | 82 | 1008.6 |
| 20260506000247 | 49 | 49 | 2.6 | 7.0 | 0.00 | 0.00 | 0.00 | 82 | 1008.7 |
| 20260505235745 | 49 | 334 | 2.6 | 7.0 | 0.00 | 0.00 | 0.00 | 82 | 1008.8 |
| 20260505235242 | 49 | 1 | 2.6 | 7.0 | 0.00 | 0.00 | 0.00 | 82 | 1008.9 |
| 20260505234750 | 49 | 346 | 2.6 | 7.0 | 0.00 | 0.00 | 0.00 | 82 | 1009.0 |
| 20260505234242 | 49 | 20 | 2.6 | 6.1 | 0.00 | 0.00 | 0.00 | 83 | 1009.0 |
| 20260505233740 | 49 | 350 | 2.6 | 6.1 | 0.00 | 0.00 | 0.00 | 83 | 1009.1 |
| 20260505233242 | 49 | 37 | 2.6 | 7.0 | 0.00 | 0.00 | 0.00 | 83 | 1009.1 |
| 20260505232739 | 49 | 28 | 2.6 | 7.0 | 0.00 | 0.00 | 0.00 | 83 | 1009.1 |
| 20260505231739 | 49 | 1 | 3.5 | 7.8 | 0.00 | 0.00 | 0.00 | 83 | 1009.0 |